Time,TemperatureF,DewpointF,PressureIn,WindDirection,WindDirectionDegrees,WindSpeedMPH,WindSpeedGustMPH,Humidity,HourlyPrecipIn,Conditions,Clouds,dailyrainin,SoftwareType,DateUTC
2017-03-30 00:02:00,39.4,38.1,29.92,East,90,18.4,18.4,95,0.00,RA,,0.00,WeatherDisplay:10.37,2017-03-30 05:02:00,
2017-03-30 00:07:00,39.4,38.1,29.92,East,90,16.6,16.6,95,0.00,RA,,0.00,WeatherDisplay:10.37,2017-03-30 05:07:00,
2017-03-30 00:12:00,39.4,38.1,29.92,East,90,15.0,15.0,95,0.00,CLR,,0.00,WeatherDisplay:10.37,2017-03-30 05:12:00,
2017-03-30 00:17:00,39.4,38.1,29.92,ENE,68,16.1,16.6,95,0.00,CLR,,0.00,WeatherDisplay:10.37,2017-03-30 05:17:00,
2017-03-30 00:22:00,39.4,38.1,29.92,ENE,68,15.4,15.4,95,0.00,CLR,,0.00,WeatherDisplay:10.37,2017-03-30 05:22:00,
2017-03-30 00:27:00,39.4,38.1,29.91,ENE,68,17.7,17.7,95,0.00,CLR,,0.00,WeatherDisplay:10.37,2017-03-30 05:27:00,
2017-03-30 00:32:00,39.4,38.1,29.91,East,90,17.6,17.6,95,0.00,CLR,,0.00,WeatherDisplay:10.37,2017-03-30 05:32:00,
2017-03-30 00:37:00,39.2,37.9,29.90,ENE,68,20.7,20.8,95,0.00,CLR,,0.00,WeatherDisplay:10.37,2017-03-30 05:37:00,
2017-03-30 00:42:00,39.2,37.9,29.90,ENE,68,20.7,20.7,95,0.00,CLR,,0.00,WeatherDisplay:10.37,2017-03-30 05:42:00,
2017-03-30 00:47:00,39.2,38.2,29.90,ENE,68,18.4,18.4,96,0.00,CLR,,0.00,WeatherDisplay:10.37,2017-03-30 05:47:00,
2017-03-30 00:48:00,39.2,38.2,29.90,ENE,68,18.4,18.9,96,0.00,CLR,,0.00,WeatherDisplay:10.37,2017-03-30 05:48:00,
2017-03-30 00:53:00,39.2,38.2,29.90,East,90,13.0,13.0,96,0.00,CLR,,0.00,WeatherDisplay:10.37,2017-03-30 05:53:00,
2017-03-30 00:58:00,39.2,38.2,29.90,NE,45,19.6,19.6,96,0.00,CLR,,0.00,WeatherDisplay:10.37,2017-03-30 05:58:00,
2017-03-30 01:03:00,39.0,38.0,29.90,East,90,16.1,16.1,96,0.00,CLR,,0.00,WeatherDisplay:10.37,2017-03-30 06:03:00,
2017-03-30 01:08:00,39.0,38.0,29.90,East,90,20.7,20.7,96,0.00,CLR,,0.00,WeatherDisplay:10.37,2017-03-30 06:08:00,
2017-03-30 01:13:00,39.0,38.0,29.90,ENE,68,17.3,18.8,96,0.00,CLR,,0.00,WeatherDisplay:10.37,2017-03-30 06:13:00,
2017-03-30 01:18:00,39.0,38.0,29.90,NE,45,20.5,20.5,96,0.00,CLR,,0.00,WeatherDisplay:10.37,2017-03-30 06:18:00,
2017-03-30 01:23:00,39.0,38.0,29.90,ENE,68,18.8,19.3,96,0.00,CLR,,0.00,WeatherDisplay:10.37,2017-03-30 06:23:00,
2017-03-30 01:28:00,39.0,38.0,29.89,ENE,68,16.1,16.3,96,0.00,CLR,,0.00,WeatherDisplay:10.37,2017-03-30 06:28:00,
2017-03-30 01:33:00,39.0,38.0,29.89,ENE,68,18.8,19.5,96,0.00,CLR,,0.00,WeatherDisplay:10.37,2017-03-30 06:33:00,
2017-03-30 01:38:00,38.8,37.8,29.89,ENE,68,20.7,20.7,96,0.00,CLR,,0.00,WeatherDisplay:10.37,2017-03-30 06:38:00,
2017-03-30 01:43:00,38.8,38.0,29.89,ENE,68,16.1,16.8,97,0.00,CLR,,0.00,WeatherDisplay:10.37,2017-03-30 06:43:00,
2017-03-30 01:48:00,38.8,38.0,29.89,East,90,13.5,13.5,97,0.00,CLR,,0.00,WeatherDisplay:10.37,2017-03-30 06:48:00,
2017-03-30 01:53:00,38.7,37.9,29.88,ENE,68,16.1,16.8,97,0.00,CLR,,0.00,WeatherDisplay:10.37,2017-03-30 06:53:00,
2017-03-30 01:58:00,38.7,37.9,29.88,ENE,68,19.6,21.3,97,0.00,CLR,,0.00,WeatherDisplay:10.37,2017-03-30 06:58:00,
2017-03-30 02:03:00,38.7,37.9,29.87,East,90,18.4,18.4,97,0.00,CLR,,0.00,WeatherDisplay:10.37,2017-03-30 07:03:00,
2017-03-30 02:08:00,38.7,37.9,29.87,East,90,20.7,20.7,97,0.00,CLR,,0.00,WeatherDisplay:10.37,2017-03-30 07:08:00,
2017-03-30 02:13:00,38.7,37.9,29.87,ENE,68,23.3,23.3,97,0.00,CLR,,0.00,WeatherDisplay:10.37,2017-03-30 07:13:00,
2017-03-30 02:18:00,38.5,37.7,29.87,East,90,18.4,18.4,97,0.00,CLR,,0.00,WeatherDisplay:10.37,2017-03-30 07:18:00,
2017-03-30 02:23:00,38.5,37.7,29.87,East,90,20.2,20.2,97,0.00,CLR,,0.00,WeatherDisplay:10.37,2017-03-30 07:23:00,
2017-03-30 02:28:00,38.5,37.7,29.87,ENE,68,14.8,14.8,97,0.00,CLR,,0.00,WeatherDisplay:10.37,2017-03-30 07:28:00,
2017-03-30 02:33:00,38.5,37.7,29.87,East,90,19.6,19.6,97,0.00,CLR,,0.00,WeatherDisplay:10.37,2017-03-30 07:33:00,
2017-03-30 02:38:00,38.5,37.7,29.86,ENE,68,17.3,18.3,97,0.00,CLR,,0.00,WeatherDisplay:10.37,2017-03-30 07:38:00,
2017-03-30 02:43:00,38.5,37.7,29.86,ENE,68,19.9,20.3,97,0.00,CLR,,0.00,WeatherDisplay:10.37,2017-03-30 07:43:00,
2017-03-30 02:48:00,38.3,37.5,29.86,East,90,20.7,20.7,97,0.00,CLR,,0.00,WeatherDisplay:10.37,2017-03-30 07:48:00,
2017-03-30 02:53:00,38.3,37.5,29.85,ENE,68,20.7,21.0,97,0.00,CLR,,0.00,WeatherDisplay:10.37,2017-03-30 07:53:00,
2017-03-30 02:58:00,38.3,37.8,29.85,East,90,18.4,18.4,98,0.00,CLR,,0.00,WeatherDisplay:10.37,2017-03-30 07:58:00,
2017-03-30 03:03:00,38.3,37.8,29.85,ENE,68,18.4,18.4,98,0.00,CLR,,0.00,WeatherDisplay:10.37,2017-03-30 08:03:00,
2017-03-30 03:08:00,38.1,37.6,29.85,ENE,68,16.1,17.1,98,0.00,CLR,,0.00,WeatherDisplay:10.37,2017-03-30 08:08:00,
2017-03-30 03:13:00,38.1,37.6,29.85,East,90,16.6,16.6,98,0.00,CLR,,0.00,WeatherDisplay:10.37,2017-03-30 08:13:00,
2017-03-30 03:18:00,38.1,37.6,29.85,East,90,17.3,17.3,98,0.00,CLR,,0.00,WeatherDisplay:10.37,2017-03-30 08:18:00,
2017-03-30 03:23:00,38.1,37.6,29.85,East,90,18.4,18.4,98,0.00,CLR,,0.00,WeatherDisplay:10.37,2017-03-30 08:23:00,
2017-03-30 03:28:00,38.1,37.6,29.85,ENE,68,19.6,19.6,98,0.00,CLR,,0.00,WeatherDisplay:10.37,2017-03-30 08:28:00,
2017-03-30 03:33:00,38.1,37.6,29.85,East,90,19.6,19.6,98,0.00,CLR,,0.00,WeatherDisplay:10.37,2017-03-30 08:33:00,
2017-03-30 03:38:00,38.1,37.6,29.85,NE,45,18.2,18.2,98,0.00,CLR,,0.00,WeatherDisplay:10.37,2017-03-30 08:38:00,
2017-03-30 03:43:00,38.1,37.6,29.85,NE,45,16.1,17.1,98,0.00,CLR,,0.00,WeatherDisplay:10.37,2017-03-30 08:43:00,
2017-03-30 03:48:00,38.1,37.6,29.85,NE,45,18.4,18.4,98,0.00,CLR,,0.00,WeatherDisplay:10.37,2017-03-30 08:48:00,
2017-03-30 03:53:00,38.1,37.6,29.85,NE,45,18.4,19.2,98,0.00,CLR,,0.00,WeatherDisplay:10.37,2017-03-30 08:53:00,
2017-03-30 03:58:00,38.1,37.6,29.85,East,90,20.7,20.7,98,0.00,CLR,,0.00,WeatherDisplay:10.37,2017-03-30 08:58:00,
2017-03-30 04:03:00,37.9,37.4,29.84,ENE,68,16.1,16.1,98,0.00,CLR,,0.00,WeatherDisplay:10.37,2017-03-30 09:03:00,
2017-03-30 04:08:00,37.9,37.4,29.84,NE,45,17.3,17.3,98,0.00,CLR,,0.00,WeatherDisplay:10.37,2017-03-30 09:08:00,
2017-03-30 04:13:00,37.9,37.4,29.84,NE,45,16.0,16.0,98,0.00,CLR,,0.00,WeatherDisplay:10.37,2017-03-30 09:13:00,
2017-03-30 04:19:00,37.9,37.4,29.84,NE,45,14.3,15.7,98,0.00,CLR,,0.00,WeatherDisplay:10.37,2017-03-30 09:19:00,
2017-03-30 04:24:00,37.9,37.4,29.84,NE,45,16.1,16.1,98,0.00,CLR,,0.00,WeatherDisplay:10.37,2017-03-30 09:24:00,
2017-03-30 04:29:00,37.9,37.6,29.84,NE,45,11.5,11.5,99,0.00,CLR,,0.00,WeatherDisplay:10.37,2017-03-30 09:29:00,
2017-03-30 04:34:00,37.9,37.6,29.84,NNE,22,16.5,16.5,99,0.00,CLR,,0.00,WeatherDisplay:10.37,2017-03-30 09:34:00,
2017-03-30 04:39:00,37.9,37.6,29.84,NE,45,14.3,15.1,99,0.00,CLR,,0.00,WeatherDisplay:10.37,2017-03-30 09:39:00,
2017-03-30 04:44:00,37.9,37.6,29.84,NE,45,15.0,15.0,99,0.00,CLR,,0.00,WeatherDisplay:10.37,2017-03-30 09:44:00,
2017-03-30 04:49:00,37.9,37.6,29.84,NNE,22,14.3,14.3,99,0.00,CLR,,0.00,WeatherDisplay:10.37,2017-03-30 09:49:00,
2017-03-30 04:54:00,37.9,37.6,29.84,NE,45,13.8,13.8,99,0.00,CLR,,0.00,WeatherDisplay:10.37,2017-03-30 09:54:00,
2017-03-30 04:59:00,37.9,37.6,29.84,NE,45,16.1,17.6,99,0.00,CLR,,0.00,WeatherDisplay:10.37,2017-03-30 09:59:00,
2017-03-30 05:04:00,37.9,37.6,29.83,NE,45,16.5,16.5,99,0.00,CLR,,0.00,WeatherDisplay:10.37,2017-03-30 10:04:00,
2017-03-30 05:09:00,37.9,37.6,29.83,NE,45,13.8,13.8,99,0.00,CLR,,0.00,WeatherDisplay:10.37,2017-03-30 10:09:00,
2017-03-30 05:14:00,37.9,37.6,29.83,NE,45,19.6,20.6,99,0.00,CLR,,0.00,WeatherDisplay:10.37,2017-03-30 10:14:00,
2017-03-30 05:19:00,37.9,37.6,29.83,NE,45,17.3,17.3,99,0.00,CLR,,0.00,WeatherDisplay:10.37,2017-03-30 10:19:00,
2017-03-30 05:24:00,37.8,37.5,29.83,NE,45,17.3,17.3,99,0.00,CLR,,0.00,WeatherDisplay:10.37,2017-03-30 10:24:00,
2017-03-30 05:29:00,37.8,37.5,29.83,ENE,68,18.4,18.4,99,0.00,CLR,,0.00,WeatherDisplay:10.37,2017-03-30 10:29:00,
2017-03-30 05:34:00,37.6,37.3,29.83,NE,45,16.1,16.5,99,0.00,CLR,,0.00,WeatherDisplay:10.37,2017-03-30 10:34:00,
2017-03-30 05:35:00,37.6,37.3,29.83,NE,45,16.1,16.4,99,0.00,CLR,,0.00,WeatherDisplay:10.37,2017-03-30 10:35:00,
2017-03-30 05:40:00,37.6,37.3,29.82,NE,45,13.8,13.8,99,0.00,CLR,,0.00,WeatherDisplay:10.37,2017-03-30 10:40:00,
2017-03-30 05:45:00,37.6,37.3,29.82,NE,45,17.3,17.3,99,0.00,CLR,,0.00,WeatherDisplay:10.37,2017-03-30 10:45:00,
2017-03-30 05:50:00,37.6,37.3,29.82,NE,45,19.6,20.1,99,0.00,CLR,,0.00,WeatherDisplay:10.37,2017-03-30 10:50:00,
2017-03-30 05:55:00,37.6,37.3,29.82,NE,45,16.1,16.1,99,0.00,CLR,,0.00,WeatherDisplay:10.37,2017-03-30 10:55:00,
2017-03-30 06:00:00,37.6,37.3,29.82,NE,45,17.3,17.4,99,0.00,CLR,,0.00,WeatherDisplay:10.37,2017-03-30 11:00:00,
2017-03-30 06:05:00,37.6,37.3,29.82,NNE,22,17.3,19.8,99,0.00,CLR,,0.00,WeatherDisplay:10.37,2017-03-30 11:05:00,
2017-03-30 06:10:00,37.6,37.3,29.82,East,90,19.6,19.6,99,0.00,CLR,,0.00,WeatherDisplay:10.37,2017-03-30 11:10:00,
2017-03-30 06:15:00,37.6,37.3,29.81,ENE,68,16.5,18.2,99,0.00,CLR,,0.00,WeatherDisplay:10.37,2017-03-30 11:15:00,
2017-03-30 06:20:00,37.6,37.3,29.81,ENE,68,16.1,16.1,99,0.00,CLR,,0.00,WeatherDisplay:10.37,2017-03-30 11:20:00,
2017-03-30 06:25:00,37.6,37.3,29.81,NE,45,19.6,19.6,99,0.00,CLR,,0.00,WeatherDisplay:10.37,2017-03-30 11:25:00,
2017-03-30 06:30:00,37.6,37.3,29.81,NE,45,18.4,18.9,99,0.00,CLR,,0.00,WeatherDisplay:10.37,2017-03-30 11:30:00,
2017-03-30 06:35:00,37.6,37.3,29.81,NE,45,17.3,17.3,99,0.00,CLR,,0.00,WeatherDisplay:10.37,2017-03-30 11:35:00,
2017-03-30 06:40:00,37.6,37.3,29.82,NE,45,16.5,17.0,99,0.00,CLR,,0.00,WeatherDisplay:10.37,2017-03-30 11:40:00,
2017-03-30 06:45:00,37.6,37.3,29.82,NNE,22,15.0,15.5,99,0.00,CLR,,0.00,WeatherDisplay:10.37,2017-03-30 11:45:00,
2017-03-30 06:50:00,37.6,37.3,29.82,NNE,22,15.0,15.0,99,0.00,CLR,,0.00,WeatherDisplay:10.37,2017-03-30 11:50:00,
2017-03-30 06:55:00,37.6,37.3,29.82,NE,45,11.4,11.4,99,0.00,CLR,,0.00,WeatherDisplay:10.37,2017-03-30 11:55:00,
2017-03-30 07:00:00,37.6,37.3,29.82,NNE,22,13.8,14.6,99,0.00,CLR,,0.00,WeatherDisplay:10.37,2017-03-30 12:00:00,
2017-03-30 07:05:00,37.6,37.3,29.83,ENE,68,17.1,17.1,99,0.00,CLR,,0.00,WeatherDisplay:10.37,2017-03-30 12:05:00,
2017-03-30 07:10:00,37.6,37.3,29.83,NNE,22,15.0,16.2,99,0.00,CLR,,0.00,WeatherDisplay:10.37,2017-03-30 12:10:00,
2017-03-30 07:15:00,37.6,37.3,29.83,NE,45,16.1,16.1,99,0.00,CLR,,0.00,WeatherDisplay:10.37,2017-03-30 12:15:00,
2017-03-30 07:20:00,37.6,37.3,29.83,NE,45,12.7,14.2,99,0.00,CLR,,0.00,WeatherDisplay:10.37,2017-03-30 12:20:00,
2017-03-30 07:25:00,37.4,37.1,29.83,NE,45,18.4,18.4,99,0.00,CLR,,0.00,WeatherDisplay:10.37,2017-03-30 12:25:00,
2017-03-30 07:30:00,37.4,37.1,29.83,ENE,68,18.4,20.1,99,0.00,CLR,,0.00,WeatherDisplay:10.37,2017-03-30 12:30:00,
2017-03-30 07:35:00,37.4,36.9,29.83,ENE,68,22.2,22.2,98,0.00,CLR,,0.00,WeatherDisplay:10.37,2017-03-30 12:35:00,
2017-03-30 07:40:00,37.4,36.9,29.83,NE,45,18.4,20.1,98,0.00,CLR,,0.00,WeatherDisplay:10.37,2017-03-30 12:40:00,
2017-03-30 07:45:00,37.2,36.7,29.83,ENE,68,21.1,21.1,98,0.00,CLR,,0.00,WeatherDisplay:10.37,2017-03-30 12:45:00,
2017-03-30 07:50:00,37.2,36.7,29.83,ENE,68,19.9,20.9,98,0.00,CLR,,0.00,WeatherDisplay:10.37,2017-03-30 12:50:00,
2017-03-30 07:55:00,37.2,36.7,29.83,NE,45,19.9,21.9,98,0.00,CLR,,0.00,WeatherDisplay:10.37,2017-03-30 12:55:00,
2017-03-30 08:00:00,37.2,36.7,29.83,NE,45,16.5,16.5,98,0.00,CLR,,0.00,WeatherDisplay:10.37,2017-03-30 13:00:00,
2017-03-30 08:05:00,37.2,36.7,29.84,NE,45,20.5,20.5,98,0.00,CLR,,0.00,WeatherDisplay:10.37,2017-03-30 13:05:00,
2017-03-30 08:10:00,37.2,36.7,29.84,NE,45,19.6,19.6,98,0.00,CLR,,0.00,WeatherDisplay:10.37,2017-03-30 13:10:00,
2017-03-30 08:15:00,37.2,36.7,29.83,NE,45,16.1,17.6,98,0.00,CLR,,0.00,WeatherDisplay:10.37,2017-03-30 13:15:00,
2017-03-30 08:20:00,37.2,36.7,29.83,NE,45,17.1,17.2,98,0.00,CLR,,0.00,WeatherDisplay:10.37,2017-03-30 13:20:00,
2017-03-30 08:25:00,37.2,36.7,29.83,ENE,68,19.6,19.6,98,0.00,CLR,,0.00,WeatherDisplay:10.37,2017-03-30 13:25:00,
2017-03-30 08:30:00,37.2,36.7,29.84,ENE,68,17.3,17.6,98,0.00,CLR,,0.00,WeatherDisplay:10.37,2017-03-30 13:30:00,
2017-03-30 08:35:00,37.2,36.7,29.84,East,90,21.9,21.9,98,0.00,CLR,,0.00,WeatherDisplay:10.37,2017-03-30 13:35:00,
2017-03-30 08:40:00,37.2,36.7,29.84,NNE,22,19.4,19.4,98,0.00,CLR,,0.00,WeatherDisplay:10.37,2017-03-30 13:40:00,
2017-03-30 08:45:00,37.2,36.9,29.84,ENE,68,15.0,16.3,99,0.00,CLR,,0.00,WeatherDisplay:10.37,2017-03-30 13:45:00,
2017-03-30 08:50:00,37.2,36.9,29.83,NE,45,19.6,19.6,99,0.00,CLR,,0.00,WeatherDisplay:10.37,2017-03-30 13:50:00,
2017-03-30 08:55:00,37.2,36.9,29.83,NE,45,18.4,19.0,99,0.00,CLR,,0.00,WeatherDisplay:10.37,2017-03-30 13:55:00,
2017-03-30 09:00:00,37.4,37.1,29.83,ENE,68,16.1,16.7,99,0.00,CLR,,0.00,WeatherDisplay:10.37,2017-03-30 14:00:00,
2017-03-30 09:05:00,37.4,37.1,29.83,ENE,68,17.3,18.8,99,0.00,CLR,,0.00,WeatherDisplay:10.37,2017-03-30 14:05:00,
2017-03-30 09:10:00,37.4,37.1,29.83,NE,45,16.0,16.0,99,0.00,CLR,,0.00,WeatherDisplay:10.37,2017-03-30 14:10:00,
2017-03-30 09:15:00,37.4,37.1,29.83,NE,45,16.0,16.0,99,0.00,CLR,,0.00,WeatherDisplay:10.37,2017-03-30 14:15:00,
2017-03-30 09:20:00,37.4,37.1,29.83,ENE,68,18.2,18.5,99,0.00,CLR,,0.00,WeatherDisplay:10.37,2017-03-30 14:20:00,
2017-03-30 09:25:00,37.6,37.3,29.83,NE,45,16.1,16.1,99,0.00,CLR,,0.00,WeatherDisplay:10.37,2017-03-30 14:25:00,
2017-03-30 09:30:00,37.6,37.3,29.83,NE,45,19.6,19.6,99,0.00,CLR,,0.00,WeatherDisplay:10.37,2017-03-30 14:30:00,
2017-03-30 09:35:00,37.6,37.3,29.83,NE,45,22.2,22.2,99,0.00,CLR,,0.00,WeatherDisplay:10.37,2017-03-30 14:35:00,
2017-03-30 09:40:00,37.6,37.3,29.83,NE,45,23.0,23.0,99,0.00,CLR,,0.00,WeatherDisplay:10.37,2017-03-30 14:40:00,
2017-03-30 09:45:00,37.8,37.3,29.83,NE,45,24.2,24.2,98,0.00,CLR,,0.00,WeatherDisplay:10.37,2017-03-30 14:45:00,
2017-03-30 09:50:00,37.9,37.4,29.82,ENE,68,24.2,24.8,98,0.00,CLR,,0.00,WeatherDisplay:10.37,2017-03-30 14:50:00,
2017-03-30 09:55:00,37.9,37.4,29.82,NE,45,16.1,16.7,98,0.00,CLR,,0.00,WeatherDisplay:10.37,2017-03-30 14:55:00,
2017-03-30 10:00:00,38.1,37.6,29.82,NE,45,23.0,23.0,98,0.00,CLR,,0.00,WeatherDisplay:10.37,2017-03-30 15:00:00,
2017-03-30 10:05:00,38.1,37.6,29.81,East,90,21.9,21.9,98,0.00,CLR,,0.00,WeatherDisplay:10.37,2017-03-30 15:05:00,
2017-03-30 10:10:00,37.9,37.4,29.81,NE,45,20.5,20.5,98,0.00,CLR,,0.00,WeatherDisplay:10.37,2017-03-30 15:10:00,
2017-03-30 10:15:00,37.9,37.4,29.81,ENE,68,22.2,24.4,98,0.00,CLR,,0.00,WeatherDisplay:10.37,2017-03-30 15:15:00,
2017-03-30 10:20:00,37.9,37.4,29.81,NE,45,21.9,21.9,98,0.00,CLR,,0.00,WeatherDisplay:10.37,2017-03-30 15:20:00,
2017-03-30 10:25:00,38.1,37.6,29.81,ENE,68,23.0,23.0,98,0.00,CLR,,0.00,WeatherDisplay:10.37,2017-03-30 15:25:00,
2017-03-30 10:30:00,38.3,37.8,29.81,NE,45,21.9,23.1,98,0.00,CLR,,0.00,WeatherDisplay:10.37,2017-03-30 15:30:00,
2017-03-30 10:35:00,38.3,37.8,29.81,ENE,68,23.0,23.0,98,0.00,CLR,,0.00,WeatherDisplay:10.37,2017-03-30 15:35:00,
2017-03-30 10:40:00,38.5,38.0,29.81,ENE,68,20.7,20.7,98,0.00,CLR,,0.00,WeatherDisplay:10.37,2017-03-30 15:40:00,
2017-03-30 10:45:00,38.7,38.2,29.81,NE,45,23.0,23.2,98,0.00,CLR,,0.00,WeatherDisplay:10.37,2017-03-30 15:45:00,
2017-03-30 10:50:00,39.2,38.4,29.81,ENE,68,24.5,24.5,97,0.00,CLR,,0.00,WeatherDisplay:10.37,2017-03-30 15:50:00,
2017-03-30 10:55:00,39.2,38.2,29.81,East,90,23.0,23.0,96,0.00,CLR,,0.00,WeatherDisplay:10.37,2017-03-30 15:55:00,
2017-03-30 11:00:00,39.4,38.4,29.81,ENE,68,20.7,21.0,96,0.00,CLR,,0.00,WeatherDisplay:10.37,2017-03-30 16:00:00,
2017-03-30 11:05:00,39.7,38.4,29.80,NNE,22,18.4,18.4,95,0.00,CLR,,0.00,WeatherDisplay:10.37,2017-03-30 16:05:00,
2017-03-30 11:10:00,39.9,38.6,29.80,ENE,68,18.4,18.4,95,0.00,CLR,,0.00,WeatherDisplay:10.37,2017-03-30 16:10:00,
2017-03-30 11:15:00,39.9,38.6,29.80,NE,45,21.9,21.9,95,0.00,CLR,,0.00,WeatherDisplay:10.37,2017-03-30 16:15:00,
2017-03-30 11:20:00,39.9,38.6,29.80,NE,45,24.2,24.2,95,0.00,CLR,,0.00,WeatherDisplay:10.37,2017-03-30 16:20:00,
2017-03-30 11:25:00,40.1,38.8,29.80,ENE,68,19.4,20.1,95,0.00,CLR,,0.00,WeatherDisplay:10.37,2017-03-30 16:25:00,
2017-03-30 11:30:00,40.1,38.8,29.80,NE,45,19.6,20.2,95,0.00,CLR,,0.00,WeatherDisplay:10.37,2017-03-30 16:30:00,
2017-03-30 11:35:00,39.9,38.6,29.80,ENE,68,17.7,19.4,95,0.00,CLR,,0.00,WeatherDisplay:10.37,2017-03-30 16:35:00,
2017-03-30 11:40:00,39.7,38.4,29.80,NE,45,17.3,17.4,95,0.00,CLR,,0.00,WeatherDisplay:10.37,2017-03-30 16:40:00,
2017-03-30 11:45:00,40.1,38.8,29.80,ENE,68,16.1,18.3,95,0.00,CLR,,0.00,WeatherDisplay:10.37,2017-03-30 16:45:00,
2017-03-30 11:50:00,40.1,38.8,29.80,ENE,68,16.1,17.4,95,0.00,CLR,,0.00,WeatherDisplay:10.37,2017-03-30 16:50:00,
2017-03-30 11:55:00,40.3,39.0,29.80,NE,45,16.1,17.4,95,0.00,CLR,,0.00,WeatherDisplay:10.37,2017-03-30 16:55:00,
2017-03-30 12:00:00,40.3,39.0,29.80,ENE,68,16.1,16.1,95,0.00,CLR,,0.00,WeatherDisplay:10.37,2017-03-30 17:00:00,
2017-03-30 12:05:00,40.3,38.7,29.80,NE,45,15.0,15.3,94,0.00,CLR,,0.00,WeatherDisplay:10.37,2017-03-30 17:05:00,
2017-03-30 12:10:00,40.3,38.7,29.80,ENE,68,15.0,15.0,94,0.00,CLR,,0.00,WeatherDisplay:10.37,2017-03-30 17:10:00,
2017-03-30 12:15:00,40.5,39.2,29.80,NE,45,15.4,15.6,95,0.00,CLR,,0.00,WeatherDisplay:10.37,2017-03-30 17:15:00,
2017-03-30 12:20:00,40.5,39.2,29.80,NE,45,14.8,15.7,95,0.00,CLR,,0.00,WeatherDisplay:10.37,2017-03-30 17:20:00,
2017-03-30 12:25:00,40.5,38.9,29.80,NE,45,13.8,13.8,94,0.00,CLR,,0.00,WeatherDisplay:10.37,2017-03-30 17:25:00,